This is the latest recevied weather packets stored in our database for station/object SP1BMW-13. If no packets are shown the sender has not sent any weather packets the latest 10 day(s).
| Time | Temp. | Humidity | Pressure | Rain* | Wind** | Luminosity | Snow |
|---|---|---|---|---|---|---|---|
| 1787399101 | 18.89° C | 59% | 1010 hPa | 0 mm | 2.24 m/s, 261° | 328 W/m² | - |
| 1787399041 | 18.89° C | 61% | 1010 hPa | 0 mm | 1.34 m/s, 163° | 251 W/m² | - |
| 1787398982 | 18.33° C | 61% | 1010.2 hPa | 0 mm | 0.89 m/s, 184° | 215 W/m² | - |
| 1787398921 | 18.33° C | 61% | 1010 hPa | 0 mm | 1.34 m/s, 293° | 205 W/m² | - |
| 1787398861 | 18.33° C | 62% | 1010.2 hPa | 0 mm | 0.45 m/s, 180° | 198 W/m² | - |
| 1787398802 | 18.89° C | 61% | 1010.1 hPa | 0 mm | 1.34 m/s, 310° | 179 W/m² | - |
| 1787398742 | 18.89° C | 61% | 1010 hPa | 0 mm | 1.34 m/s, 280° | 156 W/m² | - |
| 1787398682 | 18.89° C | 60% | 1010 hPa | 0 mm | 2.68 m/s, 214° | 143 W/m² | - |
| 1787398621 | 18.89° C | 60% | 1010.1 hPa | 0 mm | 1.79 m/s, 321° | 132 W/m² | - |
| 1787398562 | 18.89° C | 61% | 1009.9 hPa | 0 mm | 1.34 m/s, 316° | 115 W/m² | - |
| 1787398502 | 18.89° C | 61% | 1010.1 hPa | 0 mm | 1.34 m/s, 291° | 103 W/m² | - |
| 1787398441 | 18.89° C | 60% | 1010 hPa | 0 mm | 1.79 m/s, 250° | 101 W/m² | - |
| 1787398381 | 18.89° C | 60% | 1010.1 hPa | 0 mm | 1.34 m/s, 280° | 105 W/m² | - |
| 1787398321 | 18.89° C | 60% | 1010.1 hPa | 0 mm | 2.24 m/s, 250° | 107 W/m² | - |
| 1787398261 | 19.44° C | 60% | 1010 hPa | 0 mm | 0.45 m/s, 297° | 95 W/m² | - |
| 1787398201 | 19.44° C | 58% | 1009.8 hPa | 0 mm | 1.79 m/s, 247° | 76 W/m² | - |
| 1787398141 | 19.44° C | 58% | 1009.9 hPa | 0 mm | 0.89 m/s, 186° | 68 W/m² | - |
| 1787398082 | 19.44° C | 59% | 1010 hPa | 0 mm | 0.89 m/s, 262° | 68 W/m² | - |
| 1787398021 | 19.44° C | 58% | 1009.8 hPa | 0 mm | 0.89 m/s, 289° | 83 W/m² | - |
| 1787397961 | 19.44° C | 58% | 1009.8 hPa | 0 mm | 2.24 m/s, 305° | 112 W/m² | - |
| 1787397902 | 19.44° C | 59% | 1009.8 hPa | 0 mm | 0 m/s | 138 W/m² | - |
| 1787397842 | 19.44° C | 58% | 1009.7 hPa | 0 mm | 1.34 m/s, 191° | 171 W/m² | - |
| 1787397781 | 19.44° C | 58% | 1009.8 hPa | 0 mm | 0.89 m/s, 287° | 213 W/m² | - |
| 1787397721 | 19.44° C | 58% | 1009.7 hPa | 0 mm | 0.45 m/s, 255° | 259 W/m² | - |
| 1787397661 | 19.44° C | 57% | 1009.7 hPa | 0 mm | 2.24 m/s, 208° | 282 W/m² | - |
* Rain latest hour (hover to see other rain measurements)
** Current wind speed in m/s (hover to see current wind gust speed)